CW6014 Weather Reports


Display with metric or nautical units.
time (UTC)temp
F
wind
direction
speed
MPH
gust
MPH
rain 1hr
in
rain 24hr
in
rain mn
in
humidity
%
barometer
mb
20210926080835 62 360 0.0 0.0 0.00 0.40 0.00 98 1009.2
20210926075833 62 360 0.0 0.0 0.00 0.57 0.00 98 1009.3
20210926074835 62 360 0.0 0.0 0.00 0.57 0.00 98 1009.4
20210926073838 62 360 0.0 0.0 0.00 0.57 0.00 98 1009.5
20210926072824 62 360 0.0 0.0 0.00 0.57 0.00 98 1009.7
20210926071827 62 360 0.0 0.0 0.00 0.57 0.00 98 1009.8
20210926070829 62 360 0.0 0.0 0.00 0.57 0.00 98 1010.2
20210926065826 62 360 0.0 0.0 0.00 0.57 0.00 98 1010.3
20210926064832 62 360 0.0 0.0 0.00 0.57 0.00 98 1010.5
20210926063835 62 360 0.0 0.0 0.00 0.57 0.00 98 1010.5
20210926062838 64 360 0.0 0.0 0.00 0.57 0.00 98 1010.8
20210926061841 65 360 0.0 0.0 0.00 0.57 0.00 99 1011.0
20210926060826 65 360 0.0 0.0 0.00 0.57 0.00 98 1011.2
20210926055843 65 360 0.0 0.0 0.00 0.57 0.00 98 1011.3
20210926054826 65 360 0.0 0.0 0.00 0.57 0.00 98 1011.3
20210926053828 65 360 0.0 0.0 0.00 0.57 0.00 98 1011.5
20210926052832 65 360 0.0 0.0 0.00 0.57 0.00 98 1011.7
20210926051839 65 360 0.0 0.0 0.00 0.57 0.00 98 1011.7
20210926050842 65 360 0.0 0.0 0.00 0.57 0.00 98 1011.9
20210926045837 65 360 0.0 0.0 0.00 0.57 0.57 98 1012.0
20210926044840 65 360 0.0 0.0 0.00 0.57 0.57 98 1012.2
20210926043826 65 360 0.0 0.0 0.00 0.57 0.57 98 1012.4
20210926042828 65 360 0.0 0.0 0.00 0.57 0.57 98 1012.6
20210926041831 65 360 0.0 0.0 0.00 0.57 0.57 98 1012.7
20210926040833 65 360 0.0 0.0 0.00 0.57 0.57 98 1012.8
20210926035834 65 360 0.0 0.0 0.00 0.57 0.57 98 1012.8
20210926034836 65 360 0.0 0.0 0.00 0.57 0.57 98 1012.8
20210926033839 65 360 0.0 0.0 0.00 0.57 0.57 98 1012.9
20210926032842 65 360 0.0 0.0 0.00 0.57 0.57 98 1012.9
20210926031828 66 360 0.0 0.0 0.00 0.57 0.57 98 1013.0
20210926030831 66 360 0.0 0.0 0.00 0.57 0.57 98 1013.1
20210926025827 66 360 0.0 0.0 0.00 0.57 0.57 98 1013.2
20210926024828 65 360 0.0 0.0 0.00 0.57 0.57 98 1013.4
20210926023835 65 360 0.0 0.0 0.00 0.57 0.57 98 1013.3
20210926022838 65 360 0.0 0.0 0.00 0.57 0.57 98 1013.4
20210926021841 65 360 0.0 0.0 0.00 0.57 0.57 98 1013.6
20210926020843 64 360 0.0 0.0 0.00 0.57 0.57 98 1013.7
20210926015839 64 360 0.0 0.0 0.00 0.57 0.57 98 1013.7
20210926014826 65 360 0.0 0.0 0.00 0.57 0.57 98 1013.7
20210926013828 65 360 0.0 0.0 0.00 0.57 0.57 98 1013.7
20210926012831 65 360 0.0 0.0 0.00 0.57 0.57 98 1013.8
20210926011834 65 360 0.0 0.0 0.00 0.57 0.57 98 1013.9
20210926010840 65 360 0.0 0.0 0.00 0.57 0.57 98 1014.0
20210926005836 65 360 0.0 0.0 0.00 0.57 0.57 98 1014.1
20210926004839 65 360 0.0 0.0 0.00 0.57 0.57 98 1014.2
20210926003842 65 360 0.0 0.0 0.00 0.57 0.57 98 1014.2
20210926002828 65 360 0.0 0.0 0.00 0.57 0.57 98 1014.1
20210926001831 64 360 0.0 0.0 0.01 0.57 0.57 98 1014.2
20210926000833 65 360 0.0 0.0 0.01 0.57 0.57 98 1014.5
20210925235829 65 360 0.0 0.0 0.03 0.57 0.57 98 1014.5
20210925234836 65 360 0.0 0.0 0.03 0.57 0.57 98 1014.6
20210925233839 66 360 0.0 0.0 0.03 0.57 0.57 98 1014.8
20210925232842 65 360 0.0 0.0 0.03 0.57 0.57 98 1014.9
20210925231824 66 360 0.0 0.0 0.02 0.56 0.56 98 1014.8
20210925230830 64 360 0.0 0.0 0.02 0.56 0.56 98 1014.8
20210925225826 64 360 0.0 0.0 0.06 0.54 0.54 98 1014.8
20210925224829 64 360 0.0 0.0 0.06 0.54 0.54 98 1014.8
20210925223832 64 360 0.0 0.0 0.09 0.54 0.54 98 1014.7
20210925222839 64 360 0.0 0.0 0.09 0.54 0.54 98 1014.7
20210925221842 64 360 0.0 0.0 0.09 0.54 0.54 98 1014.7
20210925220843 63 360 0.0 0.0 0.09 0.54 0.54 98 1014.7
20210925215840 63 360 0.0 0.0 0.06 0.48 0.48 98 1014.7
20210925214827 63 360 0.0 0.0 0.05 0.47 0.47 98 1014.8
20210925213828 63 360 0.0 0.0 0.03 0.45 0.45 98 1015.0
20210925212830 63 360 0.0 0.0 0.03 0.45 0.45 98 1015.1
20210925211833 63 360 0.0 0.0 0.03 0.45 0.45 98 1015.0
20210925210834 63 360 0.0 0.0 0.04 0.45 0.45 98 1015.0
20210925205835 64 360 0.0 0.0 0.01 0.42 0.42 98 1015.2
20210925204838 64 360 0.0 0.0 0.01 0.42 0.42 98 1015.1
20210925203841 63 360 0.0 0.0 0.01 0.42 0.42 98 1015.2
20210925202843 63 360 0.0 0.0 0.01 0.42 0.42 98 1015.2
20210925201830 63 360 0.0 0.0 0.01 0.42 0.42 98 1015.3
20210925200832 63 360 0.0 0.0 0.00 0.41 0.41 98 1015.4
20210925195828 64 360 0.0 0.0 0.00 0.41 0.41 98 1015.5
20210925194831 64 360 0.0 0.0 0.00 0.41 0.41 98 1015.6
20210925193838 64 360 0.0 0.0 0.00 0.41 0.41 98 1015.6
20210925192841 64 360 0.0 0.0 0.00 0.41 0.41 98 1015.6
20210925191843 64 360 0.0 0.0 0.01 0.41 0.41 98 1015.6
20210925190825 65 360 0.0 0.0 0.01 0.41 0.41 98 1015.8
20210925185826 65 360 0.0 0.0 0.01 0.41 0.41 98 1015.7
20210925184829 66 360 0.0 0.0 0.01 0.41 0.41 98 1015.9
20210925183832 66 360 0.0 0.0 0.01 0.41 0.41 98 1016.0
20210925182835 66 360 0.0 0.0 0.01 0.41 0.41 98 1016.1
20210925181842 66 360 0.0 0.0 0.00 0.40 0.40 98 1016.2
20210925180843 66 360 0.0 0.0 0.00 0.40 0.40 98 1016.2
20210925175840 65 360 0.0 0.0 0.00 0.40 0.40 98 1016.4
20210925174843 65 360 0.0 0.0 0.00 0.40 0.40 98 1016.6
20210925173829 65 360 0.0 0.0 0.00 0.40 0.40 98 1016.7
20210925172831 64 360 0.0 0.0 0.02 0.40 0.40 98 1016.8
20210925171833 64 360 0.0 0.0 0.03 0.40 0.40 98 1016.9
20210925170834 64 360 0.0 0.0 0.06 0.40 0.40 98 1017.0
20210925165831 65 360 0.0 0.0 0.09 0.40 0.40 98 1017.2
20210925164838 65 360 0.0 0.0 0.11 0.40 0.40 98 1017.2
20210925163841 64 360 0.0 0.0 0.11 0.40 0.40 98 1017.2
20210925162823 65 360 0.0 0.0 0.09 0.38 0.38 98 1017.3
20210925161826 65 360 0.0 0.0 0.08 0.37 0.37 98 1017.4
20210925160832 65 360 0.0 0.0 0.05 0.34 0.34 98 1017.5
20210925155829 66 360 0.0 0.0 0.01 0.30 0.30 98 1017.4
20210925154831 65 360 0.0 0.0 0.00 0.29 0.29 98 1017.4
20210925153834 65 360 0.0 0.0 0.00 0.29 0.29 98 1017.6
20210925152841 65 360 0.0 0.0 0.00 0.29 0.29 98 1017.6
20210925151823 66 360 0.0 0.0 0.00 0.29 0.29 98 1017.6
20210925150825 66 360 0.0 0.0 0.00 0.29 0.29 98 1017.6
20210925145838 65 360 0.0 0.0 0.00 0.29 0.29 98 1017.7
20210925144824 65 360 0.0 0.0 0.00 0.29 0.29 98 1017.7
20210925143827 66 360 0.0 0.0 0.01 0.29 0.29 98 1017.7
20210925142830 65 360 0.0 0.0 0.01 0.29 0.29 98 1017.7
20210925141833 65 360 0.0 0.0 0.01 0.29 0.29 98 1017.8
20210925140838 65 360 0.0 0.0 0.01 0.29 0.29 98 1017.8
20210925135834 65 360 0.0 0.0 0.01 0.29 0.29 98 1017.8
20210925134837 64 360 0.0 0.0 0.01 0.29 0.29 98 1017.9
20210925133840 64 360 0.0 0.0 0.01 0.28 0.28 98 1017.9
20210925132826 63 360 0.0 0.0 0.03 0.28 0.28 98 1017.9
20210925131829 63 360 0.0 0.0 0.06 0.28 0.28 98 1017.9
20210925130830 63 360 0.0 0.0 0.08 0.28 0.28 98 1017.9
20210925125827 63 360 0.0 0.0 0.09 0.29 0.28 98 1017.7
20210925124830 63 360 0.0 0.0 0.09 0.29 0.28 98 1017.7
20210925123837 64 360 0.0 0.0 0.07 0.27 0.26 98 1017.8
20210925122839 63 360 0.0 0.0 0.06 0.26 0.25 98 1018.0
20210925121842 63 360 0.0 0.0 0.03 0.23 0.22 98 1017.9
20210925120824 63 360 0.0 0.0 0.01 0.21 0.20 98 1017.7
20210925115825 63 360 0.0 0.0 0.00 0.20 0.19 98 1017.7
20210925114827 63 360 0.0 0.0 0.00 0.20 0.19 98 1017.7
20210925113830 63 360 0.0 0.0 0.01 0.20 0.19 98 1017.6
20210925112833 63 360 0.0 0.0 0.01 0.20 0.19 98 1017.8
20210925111840 64 360 0.0 0.0 0.01 0.20 0.19 98 1017.6
20210925110841 64 360 0.0 0.0 0.01 0.20 0.19 98 1017.6
20210925105838 64 360 0.0 0.0 0.01 0.22 0.19 98 1017.5
20210925104841 64 360 0.0 0.0 0.01 0.22 0.19 98 1017.4
20210925103826 64 360 0.0 0.0 0.00 0.21 0.18 98 1017.5
20210925102829 64 360 0.0 0.0 0.00 0.21 0.18 98 1017.4
20210925101832 64 360 0.0 0.0 0.00 0.21 0.18 98 1017.4
20210925100834 64 360 0.0 0.0 0.00 0.21 0.18 98 1017.4
20210925095834 64 360 0.0 0.0 0.00 0.21 0.18 98 1017.3
20210925094837 64 360 0.0 0.0 0.00 0.21 0.18 98 1017.3
20210925093839 64 360 0.0 0.0 0.00 0.21 0.18 98 1017.2
20210925092843 64 360 0.0 0.0 0.00 0.21 0.18 98 1017.2
20210925091829 64 360 0.0 0.0 0.00 0.21 0.18 98 1017.4
20210925090832 64 360 0.0 0.0 0.01 0.21 0.18 97 1017.5
20210925085826 64 360 0.0 0.0 0.01 0.22 0.18 98 1017.5
20210925084829 65 360 0.0 0.0 0.02 0.22 0.18 98 1017.5
20210925083832 65 360 0.0 0.0 0.03 0.22 0.18 97 1017.5
20210925082838 64 360 0.0 0.0 0.04 0.22 0.18 97 1017.4
20210925081841 64 360 0.0 0.0 0.11 0.22 0.18 98 1017.4